This demonstration page uses our WeatherBlox Daily Observations layout. Learn more.

Left ArrowRight Arrow

39.51506, -84.39828

Hourly Observations for May 1, 2015

Temp ( °F °C ) Dew Point ( °F °C ) Humidity (%) Winds ( mph kmh ) Pressure ( in mb ) Visibility ( mi km ) Precip ( " mm )
12:15 am 00:15 Cloudy 49 9.6 39 4 68 68 Calm 30.00 1016 10 16 0.00 0.00
12:35 am 00:35 Cloudy 49 9.6 39 4.1 69 69 Calm 30.00 1016 10 16 0.00 0.00
12:55 am 00:55 Cloudy 49 9.6 40 4.2 69 69 Calm 30.03 1017 10 16 0.00 0.00
1:15 am 01:15 Cloudy 51 10.3 40 4.6 68 68 Calm 30.00 1016 10 16 0.00 0.00
1:35 am 01:35 Cloudy 51 10.8 41 4.8 67 67 NNW 6 9 30.00 1016 10 16 0.00 0.00
1:55 am 01:55 Cloudy 52 11 42 5.3 68 68 NNW 6 9 30.00 1016 10 16 0.00 0.00
2:15 am 02:15 Cloudy 52 11 42 5.6 70 70 Calm 30.00 1016 10 16 0.00 0.00
2:35 am 02:35 Cloudy 51 10.3 42 5.5 72 72 Calm 30.00 1016 10 16 0.00 0.00
2:55 am 02:55 Cloudy 51 10.3 42 5.5 72 72 N 3 6 30.00 1016 10 16 0.00 0.00
3:15 am 03:15 Cloudy 51 10.3 42 5.7 73 73 Calm 30.00 1016 10 16 0.00 0.00
3:35 am 03:35 Cloudy 52 11 42 5.5 69 69 Calm 30.00 1016 10 16 0.00 0.00
3:55 am 03:55 Cloudy 52 11 41 4.9 66 66 N 7 11 30.00 1016 10 16 0.00 0.00
4:15 am 04:15 Mostly Cloudy 51 10.3 38 3.6 63 63 N 8 13 30.00 1016 10 16 0.00 0.00
4:35 am 04:35 Clear 49 9.6 37 3 64 64 N 8 13 30.03 1017 10 16 0.00 0.00
4:55 am 04:55 Mostly Cloudy 49 9.6 38 3.2 65 65 N 3 6 30.03 1017 10 16 0.00 0.00
5:15 am 05:15 Mostly Cloudy 49 9.6 38 3.5 66 66 N 3 6 30.03 1017 10 16 0.00 0.00
5:35 am 05:35 Cloudy 49 9.6 38 3.5 66 66 Calm 30.03 1017 10 16 0.00 0.00
5:55 am 05:55 Mostly Cloudy 49 9.6 39 3.9 68 68 Calm 30.03 1017 10 16 0.00 0.00
6:15 am 06:15 Mostly Cloudy 49 9.6 39 4 68 68 NNE 3 6 30.03 1017 10 16 0.00 0.00
6:35 am 06:35 Cloudy 49 9.6 39 4 68 68 N 5 7 30.03 1017 10 16 0.00 0.00
6:55 am 06:55 Partly Cloudy 49 9.6 40 4.5 71 71 N 5 7 30.03 1017 10 16 0.00 0.00
7:15 am 07:15 Sunny 49 9.6 40 4.5 71 71 Calm 30.03 1017 10 16 0.00 0.00
7:35 am 07:35 Sunny 49 9.6 40 4.5 71 71 Calm 30.06 1018 10 16 0.00 0.00
7:55 am 07:55 Sunny 49 9.6 39 4 68 68 Calm 30.06 1018 10 16 0.00 0.00
8:15 am 08:15 Sunny 52 11 41 4.8 66 66 NNE 5 7 30.06 1018 10 16 0.00 0.00
8:35 am 08:35 Sunny 55 12.5 42 5.6 63 63 N 9 15 30.09 1019 10 16 0.00 0.00
8:55 am 08:55 Sunny 55 12.5 41 5.1 61 61 N 8 13 30.09 1019 10 16 0.00 0.00
9:15 am 09:15 Sunny 56 13.1 41 5.1 59 59 NNE 10 17 30.09 1019 10 16 0.00 0.00
9:35 am 09:35 Sunny 57 13.8 41 5.1 56 56 N 8 13 30.09 1019 10 16 0.00 0.00
9:55 am 09:55 Sunny 59 14.8 41 5.1 52 52 N 10 17 30.09 1019 10 16 0.00 0.00
10:15 am 10:15 Sunny 60 15.3 41 4.8 50 50 N 7 11 30.09 1019 10 16 0.00 0.00
10:35 am 10:35 Sunny 60 15.6 40 4.7 49 49 N 7 11 30.09 1019 10 16 0.00 0.00
10:55 am 10:55 Sunny 62 16.6 41 5.1 47 47 NNE 7 11 30.06 1018 10 16 0.00 0.00
11:15 am 11:15 Sunny 63 17 42 5.4 47 47 NNE 6 9 30.06 1018 10 16 0.00 0.00
11:35 am 11:35 Sunny 64 18 43 6 46 46 NNE 9 15 30.06 1018 10 16 0.00 0.00
11:55 am 11:55 Sunny 67 19.5 44 6.9 44 44 NNE 7 11 30.06 1018 10 16 0.00 0.00
12:15 pm 12:15 Sunny 69 20.8 45 7.4 42 42 NE 8 13 30.06 1018 10 16 0.00 0.00
12:35 pm 12:35 Sunny 69 20.8 44 6.5 40 40 ENE 12 19 30.06 1018 10 16 0.00 0.00
12:55 pm 12:55 Sunny 69 20.8 42 5.6 37 37 NE 7 11 30.06 1018 10 16 0.00 0.00
1:15 pm 13:15 Sunny 69 20.8 42 5.7 37 37 N 5 7 30.06 1018 10 16 0.00 0.00
1:35 pm 13:35 Sunny 69 20.8 41 5 36 36 NNE 7 11 30.06 1018 10 16 0.00 0.00
1:55 pm 13:55 Partly Cloudy 70 21.3 42 5.5 36 36 NE 10 17 30.06 1018 10 16 0.00 0.00
2:15 pm 14:15 Partly Cloudy 72 22.1 42 5.5 34 34 N 8 13 30.06 1018 10 16 0.00 0.00
2:35 pm 14:35 Partly Cloudy 72 22 40 4.5 32 32 NNE 9 15 30.06 1018 10 16 0.00 0.00
2:55 pm 14:55 Partly Cloudy 74 23.4 41 5.2 31 31 N 14 22 30.03 1017 10 16 0.00 0.00
3:15 pm 15:15 Partly Cloudy 74 23.4 41 5 30 30 NE 7 11 30.03 1017 10 16 0.00 0.00
3:35 pm 15:35 Partly Cloudy 74 23.5 41 5.2 31 31 NE 9 15 30.03 1017 10 16 0.00 0.00
3:55 pm 15:55 Mostly Cloudy 70 21 37 2.8 30 30 NNE 3 6 30.03 1017 10 16 0.00 0.00
4:15 pm 16:15 Partly Cloudy 74 23.5 41 4.8 30 30 NNE 12 19 30.03 1017 10 16 0.00 0.00
4:35 pm 16:35 Partly Cloudy 69 20.8 36 2.2 29 29 NNE 10 17 30.03 1017 10 16 0.00 0.00
4:55 pm 16:55 Partly Cloudy 74 23.6 39 3.9 28 28 N 10 17 30.03 1017 10 16 0.00 0.00
5:15 pm 17:15 Partly Cloudy 74 23.6 36 2.1 24 24 N 9 15 30.00 1016 10 16 0.00 0.00
5:35 pm 17:35 Mostly Cloudy 73 22.6 38 3.1 28 28 NE 8 13 30.00 1016 10 16 0.00 0.00
5:55 pm 17:55 Mostly Cloudy 72 22.3 40 4.2 31 31 NE 7 11 30.00 1016 10 16 0.00 0.00
6:15 pm 18:15 Partly Cloudy 74 23.6 37 2.7 26 26 N 9 15 30.03 1017 10 16 0.00 0.00
6:35 pm 18:35 Partly Cloudy 71 21.7 36 2.3 28 28 N 5 7 30.03 1017 10 16 0.00 0.00
6:55 pm 18:55 Sunny 73 22.6 35 1.9 26 26 NNE 9 15 30.03 1017 10 16 0.00 0.00
7:15 pm 19:15 Sunny 69 20.8 35 1.4 28 28 NNW 5 7 30.03 1017 10 16 0.00 0.00
7:35 pm 19:35 Sunny 69 20.8 36 2.4 30 30 N 3 6 30.03 1017 10 16 0.00 0.00
7:55 pm 19:55 Partly Cloudy 55 12.5 35 1.7 48 48 N 5 7 29.91 1013 10 16 0.00 0.00
8:15 pm 20:15 Sunny 69 20.8 35 1.8 28 28 Calm 30.03 1017 10 16 0.00 0.00
8:35 pm 20:35 Clear 62 16.7 43 6.1 50 50 NNW 3 6 30.03 1017 10 16 0.00 0.00
8:55 pm 20:55 Clear 59 15.1 47 8.2 64 64 NW 3 6 30.06 1018 10 16 0.00 0.00
9:15 pm 21:15 Partly Cloudy 57 13.8 44 6.6 62 62 Calm 30.06 1018 10 16 0.00 0.00
9:35 pm 21:35 Clear 57 13.8 46 7.7 67 67 Calm 30.09 1019 10 16 0.00 0.00
9:55 pm 21:55 Clear 56 13.5 45 7.1 65 65 NE 3 6 30.09 1019 10 16 0.00 0.00
10:15 pm 22:15 Clear 55 12.7 44 6.5 66 66 Calm 30.09 1019 10 16 0.00 0.00
10:35 pm 22:35 Clear 55 12.5 46 7.8 73 73 Calm 30.09 1019 10 16 0.00 0.00
10:55 pm 22:55 Clear 55 12.5 45 7.1 70 70 Calm 30.09 1019 10 16 0.00 0.00
11:15 pm 23:15 Clear 52 11 44 6.6 75 75 Calm 30.09 1019 10 16 0.00 0.00
11:35 pm 23:35 Clear 51 10.3 44 6.4 77 77 Calm 30.09 1019 10 16 0.00 0.00
11:55 pm 23:55 Clear 49 9.6 42 5.8 77 77 Calm 30.09 1019 10 16 0.00 0.00

Powered by AerisWeather